EW2345 Weather Reports


Display with metric or nautical units.
time (UTC)temp
F
wind
direction
speed
MPH
gust
MPH
rain 1hr
in
rain 24hr
in
rain mn
in
humidity
%
barometer
mb
20260903111503 88 169 1.0 3.0 0.00 0.00 0.00 42 1021.4
20260903110005 86 169 1.0 3.0 0.00 0.00 0.00 46 1021.5
20260903105504 86 169 1.0 3.0 0.00 0.00 0.00 47 1021.6
20260903105003 84 169 0.0 2.0 0.00 0.00 0.00 48 1021.6
20260903104503 84 169 1.0 3.0 0.00 0.00 0.00 47 1021.6
20260903104005 83 169 0.0 1.0 0.00 0.00 0.00 50 1021.7
20260903103504 83 169 0.0 3.0 0.00 0.00 0.00 52 1021.6
20260903103005 82 171 0.0 3.0 0.00 0.00 0.00 52 1021.6
20260903102503 82 174 0.0 1.0 0.00 0.00 0.00 52 1021.7
20260903102003 81 174 0.0 2.0 0.00 0.00 0.00 54 1021.7
20260903101504 81 174 0.0 2.0 0.00 0.00 0.00 54 1021.8
20260903101004 80 174 1.0 3.0 0.00 0.00 0.00 56 1021.7
20260903100503 79 180 0.0 2.0 0.00 0.00 0.00 55 1021.7
20260903100004 79 182 0.0 2.0 0.00 0.00 0.00 56 1021.7
20260903095504 79 182 0.0 1.0 0.00 0.00 0.00 56 1021.8
20260903095004 78 182 0.0 1.0 0.00 0.00 0.00 57 1021.7
20260903094503 78 182 0.0 2.0 0.00 0.00 0.00 55 1021.7
20260903094003 77 182 0.0 0.0 0.00 0.00 0.00 58 1021.8
20260903093503 77 182 0.0 0.0 0.00 0.00 0.00 58 1021.8
20260903092503 78 182 0.0 3.0 0.00 0.00 0.00 54 1021.7
20260903092004 77 182 1.0 3.0 0.00 0.00 0.00 57 1021.7
20260903091504 77 182 1.0 5.0 0.00 0.00 0.00 57 1021.6
20260903091003 75 167 2.0 5.0 0.00 0.00 0.00 58 1021.7
20260903090504 74 40 1.0 2.0 0.00 0.00 0.00 65 1021.7
20260903090005 73 40 0.0 0.0 0.00 0.00 0.00 65 1021.7
20260903085503 72 40 0.0 0.0 0.00 0.00 0.00 65 1021.7
20260903085004 71 40 0.0 0.0 0.00 0.00 0.00 66 1021.7
20260903084503 70 40 0.0 0.0 0.00 0.00 0.00 69 1021.8
20260903083005 69 40 0.0 0.0 0.00 0.00 0.00 69 1021.8
20260903082503 67 40 0.0 0.0 0.00 0.00 0.00 72 1021.9
20260903082003 67 40 0.0 0.0 0.00 0.00 0.00 72 1021.9
20260903081504 66 40 0.0 0.0 0.00 0.00 0.00 71 1021.9
20260903081004 66 40 0.0 0.0 0.00 0.00 0.00 73 1021.9
20260903080004 65 40 0.0 0.0 0.00 0.00 0.00 72 1021.9
20260903075003 65 40 0.0 3.0 0.00 0.00 0.00 73 1022.1
20260903074504 64 40 0.0 0.0 0.00 0.00 0.00 74 1022.1
20260903074004 63 40 0.0 0.0 0.00 0.00 0.00 75 1022.2
20260903073503 63 40 0.0 0.0 0.00 0.00 0.00 77 1022.2
20260903073004 62 40 0.0 0.0 0.00 0.00 0.00 76 1022.2
20260903072504 62 40 0.0 2.0 0.00 0.00 0.00 77 1022.1
20260903072003 62 40 0.0 2.0 0.00 0.00 0.00 78 1022.1
20260903071504 61 40 0.0 0.0 0.00 0.00 0.00 79 1022.0
20260903071003 61 40 0.0 0.0 0.00 0.00 0.00 80 1022.1
20260903070503 60 40 0.0 0.0 0.00 0.00 0.00 81 1022.1
20260903070005 59 40 0.0 0.0 0.00 0.00 0.00 82 1022.0
20260903065504 59 40 0.0 0.0 0.00 0.00 0.00 83 1022.0
20260903064503 58 40 2.0 5.0 0.00 0.00 0.00 83 1022.1
20260903064002 58 40 1.0 5.0 0.00 0.00 0.00 83 1022.0
20260903063005 57 40 1.0 5.0 0.00 0.00 0.00 83 1021.8
20260903062503 57 40 2.0 5.0 0.00 0.00 0.00 83 1021.8
20260903062004 57 40 2.0 3.0 0.00 0.00 0.00 83 1021.7
20260903061504 57 40 3.0 6.0 0.00 0.00 0.00 83 1021.7
20260903061004 57 42 2.0 6.0 0.00 0.00 0.00 83 1021.8
20260903060505 57 42 0.0 0.0 0.00 0.00 0.00 83 1021.7
20260903060005 57 42 0.0 0.0 0.00 0.00 0.00 83 1021.6
20260903055504 57 42 0.0 0.0 0.00 0.00 0.00 82 1021.6
20260903055004 57 42 0.0 0.0 0.00 0.00 0.00 82 1021.5
20260903054504 57 42 0.0 0.0 0.00 0.00 0.00 82 1021.5
20260903054003 57 42 0.0 0.0 0.00 0.00 0.00 82 1021.5
20260903053502 57 42 0.0 0.0 0.00 0.00 0.00 82 1021.4
20260903053004 57 42 1.0 3.0 0.00 0.00 0.00 82 1021.4
20260903052503 57 42 1.0 3.0 0.00 0.00 0.00 82 1021.3
20260903052004 57 42 0.0 3.0 0.00 0.00 0.00 82 1021.4
20260903051504 57 42 2.0 3.0 0.00 0.00 0.00 82 1021.3
20260903051002 57 42 3.0 6.0 0.00 0.00 0.00 82 1021.3
20260903050503 58 42 1.0 3.0 0.00 0.00 0.00 81 1021.3
20260903045003 58 42 1.0 3.0 0.00 0.00 0.00 81 1021.4
20260903044504 58 42 2.0 3.0 0.00 0.00 0.00 82 1021.4
20260903044003 58 42 1.0 3.0 0.00 0.00 0.00 82 1021.3
20260903043503 58 42 1.0 2.0 0.00 0.00 0.00 82 1021.3
20260903043005 58 41 1.0 3.0 0.00 0.00 0.00 81 1021.3
20260903041504 58 41 0.0 0.0 0.00 0.00 0.00 80 1021.3
20260903040504 58 41 0.0 0.0 0.00 0.00 0.00 80 1021.3
20260903040004 58 41 0.0 0.0 0.00 0.00 0.00 80 1021.2
20260903035504 58 41 0.0 1.0 0.00 0.00 0.00 80 1021.3
20260903035004 58 41 2.0 3.0 0.00 0.00 0.00 80 1021.3
20260903034503 58 41 0.0 0.0 0.00 0.00 0.00 80 1021.4
20260903034003 59 41 0.0 3.0 0.00 0.00 0.00 80 1021.4
20260903033503 59 41 2.0 3.0 0.00 0.00 0.00 79 1021.4
20260903033004 59 41 0.0 2.0 0.00 0.00 0.00 78 1021.4
20260903032503 59 41 0.0 0.0 0.00 0.00 0.00 78 1021.4
20260903032004 59 41 0.0 2.0 0.00 0.00 0.00 78 1021.4
20260903031005 59 41 0.0 3.0 0.00 0.00 0.00 78 1021.4
20260903030503 59 41 0.0 0.0 0.00 0.00 0.00 77 1021.4
20260903030005 59 41 0.0 0.0 0.00 0.00 0.00 77 1021.5
20260903025503 60 41 0.0 0.0 0.00 0.00 0.00 77 1021.5
20260903025004 60 41 0.0 0.0 0.00 0.00 0.00 76 1021.5
20260903024504 60 41 0.0 0.0 0.00 0.00 0.00 77 1021.5
20260903024004 60 41 0.0 0.0 0.00 0.00 0.00 76 1021.5
20260903023503 60 41 0.0 0.0 0.00 0.00 0.00 77 1021.5
20260903023004 60 41 0.0 0.0 0.00 0.00 0.00 77 1021.6
20260903022503 60 41 0.0 0.0 0.00 0.00 0.00 77 1021.5
20260903022004 60 41 0.0 1.0 0.00 0.00 0.00 77 1021.5
20260903021004 60 41 2.0 5.0 0.00 0.00 0.00 75 1021.5
20260903020503 60 41 2.0 3.0 0.00 0.00 0.00 75 1021.5
20260903020004 61 41 0.0 3.0 0.00 0.00 0.00 75 1021.5
20260903015503 61 41 1.0 3.0 0.00 0.00 0.00 74 1021.6
20260903015003 61 41 1.0 3.0 0.00 0.00 0.00 74 1021.6
20260903014503 61 41 1.0 5.0 0.00 0.00 0.00 74 1021.6
20260903014004 61 41 0.0 0.0 0.00 0.00 0.00 74 1021.7
20260903013504 61 41 0.0 0.0 0.00 0.00 0.00 74 1021.7
20260903013004 61 41 0.0 2.0 0.00 0.00 0.00 73 1021.8
20260903012504 61 41 1.0 5.0 0.00 0.00 0.00 73 1021.8
20260903012003 62 42 1.0 5.0 0.00 0.00 0.00 73 1021.8
20260903011503 62 42 0.0 0.0 0.00 0.00 0.00 72 1021.8
20260903011003 62 42 0.0 0.0 0.00 0.00 0.00 72 1021.8
20260903010005 62 42 0.0 0.0 0.00 0.00 0.00 71 1021.9
20260903005504 62 42 0.0 0.0 0.00 0.00 0.00 71 1021.9
20260903004504 63 42 1.0 3.0 0.00 0.00 0.00 70 1021.9
20260903004003 63 42 0.0 2.0 0.00 0.00 0.00 69 1021.9
20260903003503 63 42 0.0 0.0 0.00 0.00 0.00 69 1021.9
20260903003005 63 42 0.0 0.0 0.00 0.00 0.00 69 1021.9
20260903002003 63 42 0.0 0.0 0.00 0.00 0.00 69 1021.9
20260903001503 64 42 0.0 0.0 0.00 0.00 0.00 68 1021.9
20260903001003 64 42 0.0 0.0 0.00 0.00 0.00 68 1022.0
20260903000503 64 42 0.0 0.0 0.00 0.00 0.00 68 1022.0
20260903000004 64 42 0.0 0.0 0.00 0.00 0.00 67 1022.0
20260902235004 65 42 0.0 0.0 0.00 0.00 0.00 67 1022.1
20260902234504 65 42 0.0 0.0 0.00 0.00 0.00 66 1022.1
20260902234003 65 42 0.0 0.0 0.00 0.00 0.00 66 1022.1
20260902233503 65 42 0.0 0.0 0.00 0.00 0.00 66 1022.0
20260902233005 65 42 0.0 0.0 0.00 0.00 0.00 65 1022.0
20260902232503 65 42 0.0 0.0 0.00 0.00 0.00 65 1022.0
20260902232004 66 42 0.0 0.0 0.00 0.00 0.00 65 1022.0
20260902231504 66 42 0.0 0.0 0.00 0.00 0.00 65 1022.0
20260902231003 66 42 0.0 0.0 0.00 0.00 0.00 64 1021.9
20260902230504 66 42 0.0 0.0 0.00 0.00 0.00 64 1021.9
20260902230004 67 42 0.0 0.0 0.00 0.00 0.00 64 1021.9
20260902225504 67 42 0.0 0.0 0.00 0.00 0.00 63 1021.9
20260902225003 67 42 0.0 0.0 0.00 0.00 0.00 63 1021.9
20260902224004 67 42 0.0 0.0 0.00 0.00 0.00 62 1021.8
20260902223005 68 42 0.0 0.0 0.00 0.00 0.00 63 1021.8
20260902222504 68 42 0.0 0.0 0.00 0.00 0.00 62 1021.8
20260902222004 68 42 0.0 0.0 0.00 0.00 0.00 62 1021.9
20260902221503 68 42 0.0 0.0 0.00 0.00 0.00 62 1021.9
20260902221004 68 42 0.0 2.0 0.00 0.00 0.00 62 1021.9
20260902220504 69 42 0.0 0.0 0.00 0.00 0.00 62 1021.8
20260902220004 69 42 0.0 0.0 0.00 0.00 0.00 62 1021.8
20260902215503 69 42 0.0 2.0 0.00 0.00 0.00 61 1021.8
20260902215003 69 42 0.0 0.0 0.00 0.00 0.00 61 1021.8
20260902214003 69 41 0.0 2.0 0.00 0.00 0.00 60 1021.7
20260902213503 69 41 1.0 3.0 0.00 0.00 0.00 60 1021.7
20260902213005 70 41 0.0 0.0 0.00 0.00 0.00 59 1021.8
20260902212503 70 41 0.0 0.0 0.00 0.00 0.00 58 1021.8
20260902212004 71 41 0.0 0.0 0.00 0.00 0.00 57 1021.8
20260902211504 71 41 0.0 0.0 0.00 0.00 0.00 57 1021.8
20260902211003 71 41 0.0 0.0 0.00 0.00 0.00 58 1021.8
20260902210505 71 41 0.0 3.0 0.00 0.00 0.00 58 1021.8
20260902210005 72 41 1.0 3.0 0.00 0.00 0.00 58 1021.7
20260902205504 72 41 0.0 0.0 0.00 0.00 0.00 58 1021.6
20260902204504 72 41 0.0 1.0 0.00 0.00 0.00 58 1021.7
20260902204004 73 41 0.0 2.0 0.00 0.00 0.00 57 1021.6
20260902203504 73 41 0.0 2.0 0.00 0.00 0.00 56 1021.5
20260902202503 75 41 0.0 0.0 0.00 0.00 0.00 55 1021.4
20260902202004 75 41 0.0 0.0 0.00 0.00 0.00 55 1021.4
20260902201504 75 41 0.0 0.0 0.00 0.00 0.00 54 1021.4
20260902201003 75 41 0.0 1.0 0.00 0.00 0.00 53 1021.3
20260902200503 76 41 2.0 5.0 0.00 0.00 0.00 52 1021.3
20260902200004 76 41 3.0 5.0 0.00 0.00 0.00 51 1021.1
20260902195504 77 41 1.0 5.0 0.00 0.00 0.00 50 1021.0
20260902195004 77 40 2.0 5.0 0.00 0.00 0.00 51 1021.0
20260902194503 78 40 1.0 5.0 0.00 0.00 0.00 50 1020.9
20260902194003 78 40 0.0 1.0 0.00 0.00 0.00 50 1020.8
20260902193504 79 40 1.0 3.0 0.00 0.00 0.00 49 1020.7
20260902193004 79 40 1.0 2.0 0.00 0.00 0.00 47 1020.6
20260902192504 79 40 0.0 3.0 0.00 0.00 0.00 45 1020.6
20260902192004 79 17 2.0 6.0 0.00 0.00 0.00 45 1020.5
20260902191503 80 246 1.0 3.0 0.00 0.00 0.00 46 1020.4
20260902191004 80 246 0.0 0.0 0.00 0.00 0.00 47 1020.4
20260902190504 80 246 0.0 0.0 0.00 0.00 0.00 46 1020.3
20260902190005 81 246 0.0 0.0 0.00 0.00 0.00 47 1020.3
20260902185004 82 246 0.0 0.0 0.00 0.00 0.00 46 1020.2
20260902184504 82 246 0.0 1.0 0.00 0.00 0.00 46 1020.2
20260902184003 82 246 1.0 6.0 0.00 0.00 0.00 47 1020.2
20260902183503 83 246 3.0 5.0 0.00 0.00 0.00 49 1020.2
20260902183005 83 246 4.0 7.0 0.00 0.00 0.00 48 1020.1
20260902182004 83 246 4.0 7.0 0.00 0.00 0.00 48 1020.0
20260902181504 84 246 6.0 12.0 0.00 0.00 0.00 48 1020.1
20260902181004 84 242 3.0 8.0 0.00 0.00 0.00 47 1020.1
20260902180504 84 254 3.0 8.0 0.00 0.00 0.00 48 1020.1
20260902175503 85 248 5.0 7.0 0.00 0.00 0.00 47 1020.0
20260902175004 85 250 3.0 7.0 0.00 0.00 0.00 47 1020.0
20260902174503 85 252 2.0 7.0 0.00 0.00 0.00 46 1020.0
20260902174003 85 245 5.0 7.0 0.00 0.00 0.00 46 1020.0
20260902173503 86 254 5.0 7.0 0.00 0.00 0.00 46 1019.9
20260902173005 86 245 6.0 9.0 0.00 0.00 0.00 45 1019.9
20260902172504 86 243 4.0 10.0 0.00 0.00 0.00 44 1019.9
20260902172003 86 237 4.0 8.0 0.00 0.00 0.00 44 1019.9
20260902171004 86 237 3.0 8.0 0.00 0.00 0.00 42 1019.8
20260902165504 86 242 4.0 10.0 0.00 0.00 0.00 41 1019.8
20260902165004 86 233 4.0 7.0 0.00 0.00 0.00 42 1019.8
20260902164003 88 240 5.0 10.0 0.00 0.00 0.00 41 1019.7
20260902163503 88 243 6.0 12.0 0.00 0.00 0.00 41 1019.7
20260902163005 88 244 6.0 13.0 0.00 0.00 0.00 42 1019.7
20260902162504 88 242 7.0 10.0 0.00 0.00 0.00 41 1019.6
20260902162004 88 243 7.0 12.0 0.00 0.00 0.00 40 1019.5
20260902161503 88 243 6.0 13.0 0.00 0.00 0.00 42 1019.5
20260902161004 88 242 7.0 12.0 0.00 0.00 0.00 42 1019.5
20260902160006 88 250 7.0 12.0 0.00 0.00 0.00 42 1019.5
20260902155503 88 250 7.0 12.0 0.00 0.00 0.00 41 1019.6
20260902155004 89 225 5.0 10.0 0.00 0.00 0.00 40 1019.6
20260902154502 89 223 7.0 12.0 0.00 0.00 0.00 41 1019.6
20260902154003 89 233 6.0 10.0 0.00 0.00 0.00 41 1019.7
20260902153503 89 244 6.0 10.0 0.00 0.00 0.00 41 1019.7
20260902153005 90 268 6.0 12.0 0.00 0.00 0.00 42 1019.7
20260902152004 89 226 6.0 10.0 0.00 0.00 0.00 41 1019.8
20260902151503 89 249 5.0 13.0 0.00 0.00 0.00 41 1019.8
20260902151003 90 241 7.0 12.0 0.00 0.00 0.00 41 1019.8
20260902150502 89 224 8.0 13.0 0.00 0.00 0.00 43 1019.9
20260902150004 89 235 7.0 13.0 0.00 0.00 0.00 41 1019.9
20260902145003 89 253 6.0 10.0 0.00 0.00 0.00 41 1019.9
20260902144503 89 225 8.0 12.0 0.00 0.00 0.00 41 1019.9
20260902144003 89 232 5.0 12.0 0.00 0.00 0.00 42 1019.9
20260902143502 89 249 6.0 10.0 0.00 0.00 0.00 41 1020.0
20260902143005 89 248 7.0 12.0 0.00 0.00 0.00 40 1020.1
20260902142504 89 232 8.0 14.0 0.00 0.00 0.00 40 1020.1
20260902142003 90 237 7.0 15.0 0.00 0.00 0.00 40 1020.2
20260902141503 90 229 7.0 13.0 0.00 0.00 0.00 39 1020.3
20260902141003 89 239 7.0 10.0 0.00 0.00 0.00 40 1020.4
20260902140504 89 238 8.0 12.0 0.00 0.00 0.00 41 1020.5
20260902140004 89 224 9.0 14.0 0.00 0.00 0.00 40 1020.6
20260902135503 89 248 5.0 12.0 0.00 0.00 0.00 42 1020.7
20260902135004 89 238 6.0 13.0 0.00 0.00 0.00 43 1020.7
20260902134503 89 250 6.0 12.0 0.00 0.00 0.00 41 1020.8
20260902134003 89 230 5.0 12.0 0.00 0.00 0.00 41 1020.8
20260902133503 88 240 6.0 9.0 0.00 0.00 0.00 42 1020.7
20260902132503 88 249 6.0 10.0 0.00 0.00 0.00 41 1020.7
20260902131503 88 240 2.0 9.0 0.00 0.00 0.00 39 1020.7
20260902131003 87 271 4.0 7.0 0.00 0.00 0.00 41 1020.6
20260902130503 87 338 1.0 6.0 0.00 0.00 0.00 39 1020.7
20260902130004 87 350 4.0 8.0 0.00 0.00 0.00 39 1020.7
20260902125503 87 322 3.0 7.0 0.00 0.00 0.00 40 1020.7
20260902125004 87 247 1.0 7.0 0.00 0.00 0.00 42 1020.7
20260902124003 87 330 3.0 6.0 0.00 0.00 0.00 40 1020.8
20260902123503 87 343 4.0 7.0 0.00 0.00 0.00 40 1020.9
20260902123004 87 260 3.0 7.0 0.00 0.00 0.00 38 1020.9
20260902122503 86 231 2.0 8.0 0.00 0.00 0.00 40 1021.0
20260902122004 86 242 2.0 7.0 0.00 0.00 0.00 41 1021.1
20260902121503 86 243 4.0 7.0 0.00 0.00 0.00 42 1021.1
20260902121003 86 294 4.0 7.0 0.00 0.00 0.00 41 1021.2
20260902115504 84 240 0.0 7.0 0.00 0.00 0.00 44 1021.2
20260902115004 85 238 1.0 7.0 0.00 0.00 0.00 46 1021.2
20260902114003 84 234 4.0 7.0 0.00 0.00 0.00 45 1021.3
20260902113503 84 136 2.0 6.0 0.00 0.00 0.00 47 1021.4
20260902113004 83 48 0.0 2.0 0.00 0.00 0.00 46 1021.4
20260902112503 83 43 0.0 3.0 0.00 0.00 0.00 50 1021.5